Location: Newark
(12.4436°N, 0.6167°W)
Time: 06:24:39
(UTC+00:00)

Transit 2A - Pass Details

Date: 09 December 2019
Orbit: 601 x 957 km, 66.7° (Epoch: 20 January)

Event Time Altitude Azimuth Distance (km) Brightness Sun altitude
Rises 05:29:09 0° 183° (S) 3,379 9.6 -10.5°
Reaches altitude 10° 05:31:54 10° 174° (S) 2,385 8.9 -9.9°
Maximum altitude 05:36:49 35° 110° (ESE) 1,211 7.9 -8.8°
Drops below altitude 10° 05:41:17 10° 45° (NE) 2,170 8.7 -7.8°
Sets 05:43:40 0° 36° (NE) 3,034 9.3 -7.3°
